Location: Unspecified
(0.0000°N, 0.0000°E)
Time: 14:34:35
(UTC+00:00)

deb Midas V - Pass Details

Date: 15 April 2026
Orbit: 2771 x 3389 km, 86.6° (Epoch: 16 May)

Event Time Altitude Azimuth Distance (km) Brightness Sun altitude
Rises 04:24:02 0° 138° (SE) 6,626 ? -23.7°
Reaches altitude 10° 04:30:53 10° 116° (ESE) 5,679 ? -22.0°
Maximum altitude 04:38:17 15° 85° (E) 5,344 ? -20.2°
Drops below altitude 10° 04:45:51 10° 55° (NE) 5,904 ? -18.3°
Sets 04:52:58 0° 35° (NE) 7,047 ? -16.5°
